Year,Month,Day,Hour,Minute,Value (Times are PST for temperature in C)
2016,08,10,00,01,15.10
2016,08,10,00,02,15.10
2016,08,10,00,03,15.00
2016,08,10,00,04,15.00
2016,08,10,00,06,14.90
2016,08,10,00,07,14.80
2016,08,10,00,09,14.80
2016,08,10,00,11,14.80
2016,08,10,00,12,14.70
2016,08,10,00,13,14.70
2016,08,10,00,14,14.70
2016,08,10,00,16,14.60
2016,08,10,00,17,14.60
2016,08,10,00,18,14.60
2016,08,10,00,19,14.60
2016,08,10,00,21,14.50
2016,08,10,00,22,14.50
2016,08,10,00,23,14.50
2016,08,10,00,24,14.50
2016,08,10,00,26,14.40
2016,08,10,00,27,14.40
2016,08,10,00,28,14.30
2016,08,10,00,29,14.30
2016,08,10,00,31,14.30
2016,08,10,00,32,14.20
2016,08,10,00,33,14.20
2016,08,10,00,34,14.20
2016,08,10,00,36,14.20
2016,08,10,00,37,14.20
2016,08,10,00,38,14.20
2016,08,10,00,39,14.20
2016,08,10,00,41,14.20
2016,08,10,00,42,14.20
2016,08,10,00,43,14.20
2016,08,10,00,44,14.20
2016,08,10,00,46,14.20
2016,08,10,00,47,14.20
2016,08,10,00,48,14.30
2016,08,10,00,49,14.30
2016,08,10,01,19,14.60
2016,08,10,01,21,14.60
2016,08,10,01,22,14.70
2016,08,10,01,23,14.70
2016,08,10,01,24,14.70
2016,08,10,01,26,14.70
2016,08,10,01,27,14.70
2016,08,10,01,28,14.70
2016,08,10,02,19,14.70
2016,08,10,02,21,14.70
2016,08,10,02,22,14.70
2016,08,10,02,23,14.70
2016,08,10,02,24,14.70
2016,08,10,02,26,14.60
2016,08,10,02,27,14.60
2016,08,10,02,28,14.60
2016,08,10,02,29,14.60
2016,08,10,02,31,14.60
2016,08,10,02,32,14.50
2016,08,10,02,33,14.50
2016,08,10,02,34,14.50
2016,08,10,02,36,14.50
2016,08,10,02,37,14.50
2016,08,10,02,38,14.50
2016,08,10,03,19,14.50
2016,08,10,03,21,14.60
2016,08,10,03,22,14.60
2016,08,10,03,23,14.60
2016,08,10,03,24,14.60
2016,08,10,03,26,14.60
2016,08,10,03,27,14.60
2016,08,10,03,28,14.60
2016,08,10,03,29,14.60
2016,08,10,03,31,14.70
2016,08,10,03,32,14.70
2016,08,10,03,33,14.70
2016,08,10,03,34,14.70
2016,08,10,03,36,14.70
2016,08,10,03,37,14.70
2016,08,10,03,38,14.70
2016,08,10,05,19,14.40
2016,08,10,05,21,14.50
2016,08,10,05,22,14.50
2016,08,10,05,23,14.50
2016,08,10,05,24,14.50
2016,08,10,05,26,14.50
2016,08,10,05,27,14.50
2016,08,10,05,28,14.50
2016,08,10,05,29,14.50
2016,08,10,05,31,14.50
2016,08,10,05,32,14.50
2016,08,10,05,33,14.50
2016,08,10,05,34,14.50
2016,08,10,05,36,14.50
2016,08,10,05,37,14.50
2016,08,10,05,38,14.50
2016,08,10,05,39,14.50
2016,08,10,05,41,14.50
2016,08,10,05,42,14.50
2016,08,10,05,43,14.60
2016,08,10,05,44,14.60
2016,08,10,05,46,14.60
2016,08,10,05,47,14.60
2016,08,10,05,48,14.60
2016,08,10,05,49,14.60
2016,08,10,05,51,14.60
2016,08,10,05,52,14.60
2016,08,10,05,53,14.70
2016,08,10,05,54,14.70
2016,08,10,05,56,14.70
2016,08,10,05,57,14.70
2016,08,10,05,58,14.70
2016,08,10,05,59,14.80
2016,08,10,06,01,14.80
2016,08,10,06,02,14.80
2016,08,10,06,03,14.80
2016,08,10,06,04,14.80
2016,08,10,06,06,14.80
2016,08,10,06,07,14.80
2016,08,10,06,08,14.80
2016,08,10,06,09,14.80
2016,08,10,06,11,14.80
2016,08,10,06,12,14.80
2016,08,10,06,13,14.80
2016,08,10,06,14,14.90
2016,08,10,06,15,14.90
2016,08,10,06,16,14.90
2016,08,10,06,17,14.90
2016,08,10,06,18,14.90
2016,08,10,06,19,14.90
2016,08,10,06,20,14.90
2016,08,10,06,21,14.90
2016,08,10,06,22,14.90
2016,08,10,06,23,14.90
2016,08,10,06,24,14.90
2016,08,10,06,25,14.90
2016,08,10,06,26,14.90
2016,08,10,06,27,14.90
2016,08,10,06,28,14.90
2016,08,10,06,29,15.00
2016,08,10,06,30,15.00
2016,08,10,06,31,15.00
2016,08,10,06,32,15.00
2016,08,10,06,33,15.00
2016,08,10,06,34,15.00
2016,08,10,06,35,15.00
2016,08,10,06,36,15.00
2016,08,10,06,37,15.00
2016,08,10,06,38,15.00
2016,08,10,06,39,15.10
2016,08,10,06,40,15.10
2016,08,10,06,41,15.10
2016,08,10,06,42,15.10
2016,08,10,06,43,15.10
2016,08,10,06,44,15.10
2016,08,10,06,45,15.00
2016,08,10,06,46,15.00
2016,08,10,06,47,15.00
2016,08,10,06,48,15.00
2016,08,10,06,49,15.00
2016,08,10,06,50,15.00
2016,08,10,06,51,14.90
2016,08,10,06,52,14.90
2016,08,10,06,53,14.90
2016,08,10,06,54,14.80
2016,08,10,06,55,14.80
2016,08,10,06,56,14.80
2016,08,10,06,57,14.80
2016,08,10,06,58,14.80
2016,08,10,06,59,14.80
2016,08,10,07,00,14.80
2016,08,10,07,01,14.80
2016,08,10,07,02,14.80
2016,08,10,07,03,14.80
2016,08,10,07,04,14.80
2016,08,10,07,05,14.80
2016,08,10,07,06,14.80
2016,08,10,07,07,14.80
2016,08,10,07,08,14.80
2016,08,10,07,09,14.90
2016,08,10,07,10,14.80
2016,08,10,07,11,14.80
2016,08,10,07,12,14.80
2016,08,10,07,13,14.80
2016,08,10,07,14,14.80
2016,08,10,07,15,14.80
2016,08,10,07,16,14.80
2016,08,10,07,17,14.80
2016,08,10,07,18,14.80
2016,08,10,07,19,14.80
2016,08,10,07,20,14.80
2016,08,10,07,21,14.80
2016,08,10,07,22,14.80
2016,08,10,07,23,14.80
2016,08,10,07,24,14.80
2016,08,10,07,25,14.80
2016,08,10,07,26,14.80
2016,08,10,07,27,14.80
2016,08,10,07,28,14.80
2016,08,10,08,19,14.30
2016,08,10,08,21,14.20
2016,08,10,08,22,14.20
2016,08,10,08,23,14.20
2016,08,10,08,24,14.30
2016,08,10,08,26,14.30
2016,08,10,08,27,14.30
2016,08,10,08,28,14.40
2016,08,10,08,29,14.40
2016,08,10,08,31,14.40
2016,08,10,08,32,14.40
2016,08,10,08,33,14.40
2016,08,10,08,34,14.40
2016,08,10,08,36,14.40
2016,08,10,08,37,14.40
2016,08,10,08,38,14.40
2016,08,10,08,39,14.50
2016,08,10,08,41,14.50
2016,08,10,08,42,14.60
2016,08,10,08,43,14.60
2016,08,10,08,44,14.60
2016,08,10,08,46,14.60
2016,08,10,08,47,14.60
2016,08,10,08,48,14.70
2016,08,10,08,49,14.70
2016,08,10,08,51,14.70
2016,08,10,08,52,14.70
2016,08,10,08,53,14.70
2016,08,10,08,54,14.70
2016,08,10,08,56,14.70
2016,08,10,08,57,14.70
2016,08,10,08,58,14.70
2016,08,10,08,59,14.80
2016,08,10,09,01,14.80
2016,08,10,09,02,14.80
2016,08,10,09,03,14.80
2016,08,10,09,04,14.80
2016,08,10,09,06,14.80
2016,08,10,09,07,14.80
2016,08,10,09,08,14.80
2016,08,10,09,09,14.80
2016,08,10,09,11,14.90
2016,08,10,09,12,14.90
2016,08,10,09,13,15.00
2016,08,10,09,14,15.00
2016,08,10,09,15,15.10
2016,08,10,09,16,15.20
2016,08,10,09,17,15.20
2016,08,10,09,18,15.20
2016,08,10,09,19,15.20
2016,08,10,09,21,15.30
2016,08,10,09,22,15.30
2016,08,10,09,23,15.30
2016,08,10,09,24,15.30
2016,08,10,09,25,15.30
2016,08,10,09,26,15.40
2016,08,10,09,27,15.40
2016,08,10,09,28,15.40
2016,08,10,09,29,15.50
2016,08,10,09,30,15.50
2016,08,10,09,31,15.60
2016,08,10,09,32,15.60
2016,08,10,09,33,15.60
2016,08,10,09,34,15.70
2016,08,10,09,36,15.80
2016,08,10,09,37,15.80
2016,08,10,09,38,15.80
2016,08,10,09,39,15.90
2016,08,10,09,41,16.10
2016,08,10,09,42,16.10
2016,08,10,09,43,16.10
2016,08,10,09,44,16.10
2016,08,10,09,45,16.20
2016,08,10,09,46,16.20
2016,08,10,09,47,16.20
2016,08,10,09,49,16.30
2016,08,10,09,50,16.30
2016,08,10,09,51,16.40
2016,08,10,09,52,16.40
2016,08,10,09,53,16.60
2016,08,10,09,54,16.70
2016,08,10,09,55,16.70
2016,08,10,09,56,16.70
2016,08,10,09,57,16.70
2016,08,10,09,58,16.80
2016,08,10,09,59,16.80
2016,08,10,10,00,16.80
2016,08,10,10,01,16.80
2016,08,10,10,02,16.80
2016,08,10,10,03,16.80
2016,08,10,10,04,16.80
2016,08,10,10,05,16.80
2016,08,10,10,06,16.80
2016,08,10,10,07,16.80
2016,08,10,10,08,16.80
2016,08,10,10,09,16.80
2016,08,10,10,10,16.80
2016,08,10,10,11,16.80
2016,08,10,10,12,16.80
2016,08,10,10,13,16.80
2016,08,10,10,14,16.80
2016,08,10,10,15,16.80
2016,08,10,10,16,16.80
2016,08,10,10,17,16.90
2016,08,10,10,18,16.90
2016,08,10,10,19,16.90
2016,08,10,10,20,17.00
2016,08,10,10,21,17.00
2016,08,10,10,22,17.10
2016,08,10,10,23,17.10
2016,08,10,10,24,17.20
2016,08,10,10,25,17.20
2016,08,10,10,26,17.20
2016,08,10,10,27,17.30
2016,08,10,10,28,17.30
2016,08,10,10,29,17.30
2016,08,10,10,30,17.40
2016,08,10,10,31,17.50
2016,08,10,10,32,17.60
2016,08,10,10,33,17.70
2016,08,10,10,34,17.80
2016,08,10,10,35,17.90
2016,08,10,10,36,17.90
2016,08,10,10,37,18.10
2016,08,10,10,38,18.10
2016,08,10,10,39,18.20
2016,08,10,10,40,18.20
2016,08,10,10,41,18.20
2016,08,10,10,42,18.20
2016,08,10,10,43,18.20
2016,08,10,10,44,18.20
2016,08,10,10,45,18.20
2016,08,10,10,46,18.20
2016,08,10,10,47,18.20
2016,08,10,10,48,18.20
2016,08,10,10,49,18.20
2016,08,10,10,50,18.20
2016,08,10,10,51,18.20
2016,08,10,10,52,18.20
2016,08,10,10,53,18.20
2016,08,10,10,54,18.30
2016,08,10,10,55,18.30
2016,08,10,10,56,18.40
2016,08,10,10,57,18.50
2016,08,10,10,59,18.70
2016,08,10,11,00,18.70
2016,08,10,11,02,18.80
2016,08,10,11,03,18.80
2016,08,10,11,04,18.90
2016,08,10,11,06,18.90
2016,08,10,11,07,18.80
2016,08,10,11,08,18.90
2016,08,10,11,09,18.90
2016,08,10,11,11,18.90
2016,08,10,11,12,19.10
2016,08,10,11,13,19.10
2016,08,10,11,14,19.10
2016,08,10,11,16,19.30
2016,08,10,11,17,19.40
2016,08,10,11,18,19.50
2016,08,10,11,19,19.60
2016,08,10,11,21,19.70
2016,08,10,11,22,19.80
2016,08,10,11,23,19.90
2016,08,10,11,24,19.90
2016,08,10,11,26,19.90
2016,08,10,11,27,19.90
2016,08,10,11,28,20.10
2016,08,10,11,29,20.10
2016,08,10,11,31,19.90
2016,08,10,11,32,19.90
2016,08,10,11,33,19.90
2016,08,10,11,34,19.90
2016,08,10,11,36,19.90
2016,08,10,11,37,19.90
2016,08,10,11,38,19.90
2016,08,10,11,39,19.90
2016,08,10,11,41,19.80
2016,08,10,11,42,19.80
2016,08,10,11,43,19.70
2016,08,10,11,44,19.60
2016,08,10,11,46,19.50
2016,08,10,11,47,19.40
2016,08,10,11,48,19.40
2016,08,10,11,49,19.30
2016,08,10,11,51,19.10
2016,08,10,11,52,19.10
2016,08,10,11,53,18.90
2016,08,10,11,54,18.90
2016,08,10,11,56,18.90
2016,08,10,11,57,18.90
2016,08,10,11,58,18.90
2016,08,10,11,59,18.90
2016,08,10,12,01,18.90
2016,08,10,12,02,18.90
2016,08,10,12,03,18.90
2016,08,10,12,04,18.90
2016,08,10,12,06,19.10
2016,08,10,12,07,19.10
2016,08,10,12,08,19.10
2016,08,10,12,09,19.10
2016,08,10,12,10,19.10
2016,08,10,12,11,19.10
2016,08,10,12,12,19.10
2016,08,10,12,13,19.10
2016,08,10,12,14,19.10
2016,08,10,12,15,19.10
2016,08,10,12,16,19.10
2016,08,10,12,17,19.10
2016,08,10,12,18,19.10
2016,08,10,12,19,19.10
2016,08,10,12,20,19.10
2016,08,10,12,21,19.10
2016,08,10,12,22,19.10
2016,08,10,12,23,19.10
2016,08,10,12,24,19.10
2016,08,10,12,25,19.10
2016,08,10,12,26,19.10
2016,08,10,12,27,19.10
2016,08,10,12,28,19.10
2016,08,10,12,29,19.10
2016,08,10,12,30,19.10
2016,08,10,12,31,19.10
2016,08,10,12,32,19.10
2016,08,10,12,33,18.90
2016,08,10,12,34,19.10
2016,08,10,12,35,19.10
2016,08,10,12,36,19.10
2016,08,10,12,37,19.10
2016,08,10,12,38,19.10
2016,08,10,12,39,19.10
2016,08,10,12,40,19.10
2016,08,10,12,41,19.20
2016,08,10,12,42,19.20
2016,08,10,12,43,19.20
2016,08,10,12,44,19.20
2016,08,10,12,45,19.20
2016,08,10,12,46,19.20
2016,08,10,12,47,19.20
2016,08,10,12,48,19.30
2016,08,10,12,49,19.30
2016,08,10,12,50,19.40
2016,08,10,12,51,19.40
2016,08,10,12,52,19.50
2016,08,10,12,54,19.60
2016,08,10,12,55,19.70
2016,08,10,12,56,19.80
2016,08,10,12,57,19.90
2016,08,10,12,58,19.90
2016,08,10,12,59,19.90
2016,08,10,13,00,19.90
2016,08,10,13,01,19.90
2016,08,10,13,02,19.90
2016,08,10,13,03,20.10
2016,08,10,13,04,20.10
2016,08,10,13,05,20.20
2016,08,10,13,06,20.20
2016,08,10,13,07,20.20
2016,08,10,13,08,20.30
2016,08,10,13,09,20.40
2016,08,10,13,10,20.50
2016,08,10,13,11,20.60
2016,08,10,13,12,20.60
2016,08,10,13,13,20.70
2016,08,10,13,14,20.80
2016,08,10,13,15,20.90
2016,08,10,13,16,20.90
2016,08,10,13,17,21.00
2016,08,10,13,18,21.00
2016,08,10,13,19,21.00
2016,08,10,13,20,21.00
2016,08,10,13,21,21.10
2016,08,10,13,22,21.10
2016,08,10,13,23,21.00
2016,08,10,13,24,20.90
2016,08,10,13,25,20.90
2016,08,10,13,26,20.80
2016,08,10,13,27,20.70
2016,08,10,13,28,20.60
2016,08,10,13,29,20.60
2016,08,10,13,30,20.60
2016,08,10,13,31,20.60
2016,08,10,13,32,20.60
2016,08,10,13,33,20.60
2016,08,10,13,34,20.60
2016,08,10,13,35,20.50
2016,08,10,13,36,20.50
2016,08,10,13,38,20.50
2016,08,10,13,39,20.50
2016,08,10,13,41,20.50
2016,08,10,13,42,20.50
2016,08,10,13,43,20.60
2016,08,10,13,44,20.60
2016,08,10,13,46,20.80
2016,08,10,13,47,20.90
2016,08,10,13,48,21.00
2016,08,10,13,49,21.10
2016,08,10,13,51,21.20
2016,08,10,13,52,21.20
2016,08,10,13,53,21.20
2016,08,10,13,54,21.10
2016,08,10,13,56,21.10
2016,08,10,13,57,21.10
2016,08,10,13,58,21.10
2016,08,10,13,59,21.10
2016,08,10,14,01,21.10
2016,08,10,14,02,21.10
2016,08,10,14,03,21.10
2016,08,10,14,04,21.10
2016,08,10,14,06,21.10
2016,08,10,14,07,21.20
2016,08,10,14,08,21.30
2016,08,10,14,09,21.30
2016,08,10,14,11,21.30
2016,08,10,14,12,21.30
2016,08,10,14,13,21.30
2016,08,10,14,14,21.30
2016,08,10,14,16,21.40
2016,08,10,14,17,21.30
2016,08,10,14,18,21.30
2016,08,10,14,19,21.30
2016,08,10,14,21,21.40
2016,08,10,14,22,21.40
2016,08,10,14,23,21.60
2016,08,10,14,24,21.60
2016,08,10,14,26,21.60
2016,08,10,14,27,21.60
2016,08,10,14,28,21.70
2016,08,10,14,29,21.70
2016,08,10,14,31,21.70
2016,08,10,14,32,21.70
2016,08,10,14,33,21.80
2016,08,10,14,34,21.80
2016,08,10,14,36,21.70
2016,08,10,14,37,21.70
2016,08,10,14,38,21.70
2016,08,10,14,39,21.60
2016,08,10,14,41,21.60
2016,08,10,14,42,21.60
2016,08,10,14,43,21.40
2016,08,10,14,44,21.40
2016,08,10,14,45,21.30
2016,08,10,14,46,21.40
2016,08,10,14,47,21.40
2016,08,10,14,48,21.40
2016,08,10,14,49,21.40
2016,08,10,14,50,21.40
2016,08,10,14,51,21.40
2016,08,10,14,52,21.60
2016,08,10,14,53,21.40
2016,08,10,14,54,21.40
2016,08,10,14,55,21.40
2016,08,10,14,56,21.30
2016,08,10,14,57,21.30
2016,08,10,14,58,21.30
2016,08,10,14,59,21.30
2016,08,10,15,00,21.30
2016,08,10,15,01,21.30
2016,08,10,15,02,21.30
2016,08,10,15,03,21.30
2016,08,10,15,04,21.40
2016,08,10,15,06,21.40
2016,08,10,15,07,21.40
2016,08,10,15,08,21.60
2016,08,10,15,09,21.60
2016,08,10,15,10,21.60
2016,08,10,15,11,21.60
2016,08,10,15,12,21.60
2016,08,10,15,13,21.60
2016,08,10,15,14,21.60
2016,08,10,15,15,21.60
2016,08,10,15,16,21.60
2016,08,10,15,17,21.60
2016,08,10,15,18,21.60
2016,08,10,15,19,21.60
2016,08,10,15,20,21.60
2016,08,10,15,21,21.70
2016,08,10,15,22,21.70
2016,08,10,15,23,21.80
2016,08,10,15,24,21.80
2016,08,10,15,25,21.90
2016,08,10,15,26,21.90
2016,08,10,15,27,22.00
2016,08,10,15,28,22.10
2016,08,10,15,29,22.10
2016,08,10,15,30,22.10
2016,08,10,15,31,22.10
2016,08,10,15,32,22.10
2016,08,10,15,33,22.10
2016,08,10,15,34,22.10
2016,08,10,15,35,22.10
2016,08,10,15,36,22.10
2016,08,10,15,37,22.00
2016,08,10,15,38,22.00
2016,08,10,15,39,22.00
2016,08,10,15,40,22.00
2016,08,10,15,41,22.00
2016,08,10,15,42,22.00
2016,08,10,15,43,22.00
2016,08,10,15,44,22.00
2016,08,10,15,45,22.00
2016,08,10,15,46,22.00
2016,08,10,15,47,22.00
2016,08,10,15,48,22.00
2016,08,10,15,49,22.00
2016,08,10,15,50,22.10
2016,08,10,15,51,22.10
2016,08,10,15,52,22.10
2016,08,10,15,53,22.10
2016,08,10,15,54,22.10
2016,08,10,15,55,22.10
2016,08,10,15,56,22.10
2016,08,10,15,57,22.10
2016,08,10,15,58,22.10
2016,08,10,15,59,22.10
2016,08,10,16,00,22.10
2016,08,10,16,01,22.00
2016,08,10,16,02,21.90
2016,08,10,16,03,21.90
2016,08,10,16,04,21.90
2016,08,10,16,05,21.90
2016,08,10,16,06,21.90
2016,08,10,16,07,21.90
2016,08,10,16,08,21.90
2016,08,10,16,09,21.90
2016,08,10,16,10,21.90
2016,08,10,16,11,21.90
2016,08,10,16,12,22.00
2016,08,10,16,13,22.00
2016,08,10,16,14,22.00
2016,08,10,16,15,22.00
2016,08,10,16,16,22.00
2016,08,10,16,17,22.00
2016,08,10,16,18,22.00
2016,08,10,16,19,22.00
2016,08,10,16,20,22.00
2016,08,10,16,22,22.00
2016,08,10,16,24,22.10
2016,08,10,16,26,22.30
2016,08,10,16,27,22.30
2016,08,10,16,28,22.40
2016,08,10,16,29,22.40
2016,08,10,16,31,22.40
2016,08,10,16,32,22.50
2016,08,10,16,33,22.50
2016,08,10,16,34,22.50
2016,08,10,16,36,22.50
2016,08,10,16,37,22.50
2016,08,10,16,38,22.50
2016,08,10,16,39,22.40
2016,08,10,16,41,22.40
2016,08,10,16,42,22.40
2016,08,10,16,43,22.40
2016,08,10,16,44,22.40
2016,08,10,16,46,22.50
2016,08,10,16,47,22.50
2016,08,10,16,48,22.50
2016,08,10,16,49,22.50
2016,08,10,16,51,22.50
2016,08,10,16,52,22.50
2016,08,10,16,53,22.40
2016,08,10,16,54,22.30
2016,08,10,16,56,22.30
2016,08,10,16,57,22.20
2016,08,10,16,58,22.20
2016,08,10,16,59,22.10
2016,08,10,17,01,22.00
2016,08,10,17,02,22.00
2016,08,10,17,03,21.90
2016,08,10,17,04,21.90
2016,08,10,17,06,21.80
2016,08,10,17,07,21.80
2016,08,10,17,08,21.80
2016,08,10,17,09,21.70
2016,08,10,17,11,21.70
2016,08,10,17,12,21.70
2016,08,10,17,13,21.80
2016,08,10,17,14,21.80
2016,08,10,17,16,21.90
2016,08,10,17,17,21.90
2016,08,10,17,18,21.90
2016,08,10,17,19,22.00
2016,08,10,17,21,22.00
2016,08,10,17,22,22.00
2016,08,10,17,23,22.00
2016,08,10,17,24,22.00
2016,08,10,17,26,22.10
2016,08,10,17,27,22.10
2016,08,10,17,28,22.10
2016,08,10,17,29,22.20
2016,08,10,17,31,22.20
2016,08,10,17,32,22.20
2016,08,10,17,33,22.20
2016,08,10,17,34,22.20
2016,08,10,17,36,22.10
2016,08,10,17,37,22.10
2016,08,10,17,38,22.10
2016,08,10,17,39,22.00
2016,08,10,17,40,22.00
2016,08,10,17,41,22.00
2016,08,10,17,42,22.00
2016,08,10,17,43,22.00
2016,08,10,17,44,22.00
2016,08,10,17,45,22.00
2016,08,10,17,46,22.00
2016,08,10,17,47,22.00
2016,08,10,17,48,22.00
2016,08,10,17,49,22.00
2016,08,10,17,50,22.10
2016,08,10,17,51,22.10
2016,08,10,17,52,22.10
2016,08,10,17,53,22.10
2016,08,10,17,54,22.20
2016,08,10,17,55,22.20
2016,08,10,17,56,22.20
2016,08,10,17,57,22.20
2016,08,10,17,58,22.20
2016,08,10,17,59,22.20
2016,08,10,18,00,22.20
2016,08,10,18,01,22.20
2016,08,10,18,02,22.20
2016,08,10,18,03,22.20
2016,08,10,18,04,22.10
2016,08,10,18,05,22.10
2016,08,10,18,06,22.10
2016,08,10,18,07,22.10
2016,08,10,18,08,22.10
2016,08,10,18,09,22.10
2016,08,10,18,10,22.10
2016,08,10,18,11,22.10
2016,08,10,18,12,22.10
2016,08,10,18,13,22.10
2016,08,10,18,14,22.10
2016,08,10,18,15,22.10
2016,08,10,18,16,22.10
2016,08,10,18,17,22.10
2016,08,10,18,18,22.10
2016,08,10,18,19,22.10
2016,08,10,18,20,22.10
2016,08,10,18,21,22.00
2016,08,10,18,22,22.00
2016,08,10,18,23,22.00
2016,08,10,18,24,22.00
2016,08,10,18,25,21.90
2016,08,10,18,26,21.90
2016,08,10,18,27,22.00
2016,08,10,18,28,22.00
2016,08,10,18,29,22.00
2016,08,10,18,30,21.90
2016,08,10,18,31,21.90
2016,08,10,18,32,21.90
2016,08,10,18,33,21.90
2016,08,10,18,34,21.90
2016,08,10,18,35,21.80
2016,08,10,18,36,21.80
2016,08,10,18,37,21.80
2016,08,10,18,38,21.80
2016,08,10,18,39,21.70
2016,08,10,18,40,21.70
2016,08,10,18,41,21.70
2016,08,10,18,42,21.70
2016,08,10,18,43,21.70
2016,08,10,18,44,21.70
2016,08,10,18,45,21.70
2016,08,10,18,46,21.70
2016,08,10,18,47,21.70
2016,08,10,18,48,21.70
2016,08,10,18,49,21.70
2016,08,10,18,50,21.70
2016,08,10,18,51,21.70
2016,08,10,18,52,21.70
2016,08,10,18,53,21.70
2016,08,10,18,54,21.70
2016,08,10,18,55,21.70
2016,08,10,18,56,21.70
2016,08,10,18,57,21.70
2016,08,10,18,58,21.70
2016,08,10,18,59,21.80
2016,08,10,19,00,21.80
2016,08,10,19,01,21.80
2016,08,10,19,02,21.80
2016,08,10,19,03,21.80
2016,08,10,19,04,21.80
2016,08,10,19,05,21.80
2016,08,10,19,06,21.80
2016,08,10,19,07,21.80
2016,08,10,19,09,21.70
2016,08,10,19,11,21.60
2016,08,10,19,12,21.60
2016,08,10,19,13,21.60
2016,08,10,19,14,21.40
2016,08,10,19,16,21.30
2016,08,10,19,17,21.30
2016,08,10,19,18,21.30
2016,08,10,19,19,21.20
2016,08,10,19,21,21.00
2016,08,10,19,22,21.00
2016,08,10,19,23,20.90
2016,08,10,19,24,20.90
2016,08,10,19,26,20.80
2016,08,10,19,27,20.80
2016,08,10,19,28,20.70
2016,08,10,19,29,20.70
2016,08,10,19,31,20.60
2016,08,10,19,32,20.60
2016,08,10,19,33,20.60
2016,08,10,19,34,20.50
2016,08,10,19,36,20.50
2016,08,10,19,37,20.50
2016,08,10,19,38,20.40
2016,08,10,19,39,20.40
2016,08,10,19,41,20.40
2016,08,10,19,42,20.30
2016,08,10,19,43,20.30
2016,08,10,19,44,20.20
2016,08,10,19,46,20.20
2016,08,10,19,47,20.20
2016,08,10,19,48,20.10
2016,08,10,19,49,20.10
2016,08,10,19,51,19.90
2016,08,10,19,52,19.90
2016,08,10,19,53,19.90
2016,08,10,19,54,19.80
2016,08,10,19,56,19.70
2016,08,10,19,57,19.70
2016,08,10,19,58,19.60
2016,08,10,19,59,19.60
2016,08,10,20,01,19.50
2016,08,10,20,02,19.50
2016,08,10,20,03,19.40
2016,08,10,20,04,19.40
2016,08,10,20,06,19.30
2016,08,10,20,07,19.30
2016,08,10,20,08,19.20
2016,08,10,20,09,19.20
2016,08,10,20,11,19.10
2016,08,10,20,12,19.10
2016,08,10,20,13,19.10
2016,08,10,20,14,19.10
2016,08,10,20,15,18.90
2016,08,10,20,16,18.90
2016,08,10,20,17,18.90
2016,08,10,20,18,18.90
2016,08,10,20,19,18.90
2016,08,10,20,21,18.80
2016,08,10,20,22,18.80
2016,08,10,20,23,18.70
2016,08,10,20,24,18.70
2016,08,10,20,25,18.70
2016,08,10,20,26,18.70
2016,08,10,20,27,18.60
2016,08,10,20,28,18.60
2016,08,10,20,29,18.60
2016,08,10,20,30,18.50
2016,08,10,20,31,18.50
2016,08,10,20,32,18.50
2016,08,10,20,33,18.50
2016,08,10,20,34,18.40
2016,08,10,20,35,18.40
2016,08,10,20,36,18.40
2016,08,10,20,37,18.40
2016,08,10,20,38,18.40
2016,08,10,20,39,18.30
2016,08,10,20,40,18.30
2016,08,10,20,41,18.30
2016,08,10,20,42,18.30
2016,08,10,20,43,18.30
2016,08,10,20,44,18.30
2016,08,10,20,45,18.20
2016,08,10,20,46,18.20
2016,08,10,20,48,18.20
2016,08,10,20,49,18.20
2016,08,10,20,50,18.20
2016,08,10,20,51,18.20
2016,08,10,20,52,18.20
2016,08,10,20,53,18.20
2016,08,10,20,54,18.20
2016,08,10,20,55,18.10
2016,08,10,20,56,18.10
2016,08,10,20,57,18.10
2016,08,10,20,58,17.90
2016,08,10,20,59,17.90
2016,08,10,21,00,17.90
2016,08,10,21,01,17.80
2016,08,10,21,02,17.80
2016,08,10,21,03,17.70
2016,08,10,21,04,17.70
2016,08,10,21,05,17.60
2016,08,10,21,06,17.60
2016,08,10,21,07,17.60
2016,08,10,21,08,17.50
2016,08,10,21,09,17.50
2016,08,10,21,10,17.50
2016,08,10,21,11,17.50
2016,08,10,21,12,17.50
2016,08,10,21,13,17.50
2016,08,10,21,14,17.50
2016,08,10,21,15,17.40
2016,08,10,21,16,17.40
2016,08,10,21,17,17.40
2016,08,10,21,18,17.40
2016,08,10,21,19,17.40
2016,08,10,21,20,17.40
2016,08,10,21,21,17.40
2016,08,10,21,22,17.40
2016,08,10,21,23,17.40
2016,08,10,21,24,17.40
2016,08,10,21,25,17.40
2016,08,10,21,26,17.40
2016,08,10,21,27,17.40
2016,08,10,21,28,17.40
2016,08,10,21,29,17.40
2016,08,10,21,30,17.40
2016,08,10,21,31,17.40
2016,08,10,21,32,17.40
2016,08,10,21,33,17.40
2016,08,10,21,34,17.40
2016,08,10,21,35,17.40
2016,08,10,21,36,17.40
2016,08,10,21,37,17.40
2016,08,10,21,38,17.40
2016,08,10,21,39,17.40
2016,08,10,21,40,17.40
2016,08,10,21,41,17.40
2016,08,10,21,42,17.40
2016,08,10,21,43,17.40
2016,08,10,21,44,17.40
2016,08,10,21,45,17.40
2016,08,10,21,46,17.40
2016,08,10,21,47,17.40
2016,08,10,21,48,17.40
2016,08,10,21,49,17.40
2016,08,10,21,50,17.40
2016,08,10,21,52,17.40
2016,08,10,21,54,17.40
2016,08,10,21,56,17.40
2016,08,10,21,57,17.40
2016,08,10,21,58,17.40
2016,08,10,21,59,17.40
2016,08,10,22,01,17.30
2016,08,10,22,02,17.30
2016,08,10,22,03,17.30
2016,08,10,22,04,17.30
2016,08,10,22,06,17.30
2016,08,10,22,07,17.30
2016,08,10,22,08,17.30
2016,08,10,22,09,17.30
2016,08,10,22,11,17.30
2016,08,10,22,12,17.30
2016,08,10,22,13,17.30
2016,08,10,22,14,17.30
2016,08,10,22,16,17.30
2016,08,10,22,17,17.30
2016,08,10,22,18,17.30
2016,08,10,22,19,17.40
2016,08,10,22,21,17.40
2016,08,10,22,22,17.40
2016,08,10,22,23,17.40
2016,08,10,22,24,17.40
2016,08,10,22,26,17.40
2016,08,10,22,27,17.40
2016,08,10,22,28,17.40
2016,08,10,22,29,17.40
2016,08,10,22,31,17.40
2016,08,10,22,32,17.40
2016,08,10,22,33,17.40
2016,08,10,22,34,17.40
2016,08,10,22,36,17.40
2016,08,10,22,37,17.40
2016,08,10,22,38,17.40
2016,08,10,22,39,17.40
2016,08,10,22,41,17.40
2016,08,10,22,42,17.30
2016,08,10,22,43,17.30
2016,08,10,22,44,17.30
2016,08,10,22,46,17.30
2016,08,10,22,47,17.30
2016,08,10,22,48,17.40
2016,08,10,22,49,17.40
2016,08,10,22,51,17.40
2016,08,10,22,52,17.40
2016,08,10,22,53,17.50
2016,08,10,22,54,17.50
2016,08,10,22,56,17.50
2016,08,10,22,57,17.60
2016,08,10,22,58,17.60
2016,08,10,22,59,17.60
2016,08,10,23,00,17.60
2016,08,10,23,01,17.70
2016,08,10,23,02,17.70
2016,08,10,23,03,17.70
2016,08,10,23,04,17.70
2016,08,10,23,06,17.80
2016,08,10,23,07,17.80
2016,08,10,23,08,17.80
2016,08,10,23,09,17.80
2016,08,10,23,10,17.80
2016,08,10,23,11,17.80
2016,08,10,23,12,17.80
2016,08,10,23,13,17.80
2016,08,10,23,14,17.70
2016,08,10,23,15,17.70
2016,08,10,23,16,17.70
2016,08,10,23,17,17.70
2016,08,10,23,18,17.70
2016,08,10,23,19,17.70
2016,08,10,23,20,17.80
2016,08,10,23,21,17.80
2016,08,10,23,22,17.80
2016,08,10,23,23,17.80
2016,08,10,23,24,17.80
2016,08,10,23,25,17.80
2016,08,10,23,26,17.80
2016,08,10,23,27,17.80
2016,08,10,23,28,17.80
2016,08,10,23,29,17.80
2016,08,10,23,30,17.80
2016,08,10,23,31,17.80
2016,08,10,23,32,17.80
2016,08,10,23,33,17.80
2016,08,10,23,34,17.80
2016,08,10,23,35,17.80
2016,08,10,23,36,17.80
2016,08,10,23,37,17.80
2016,08,10,23,38,17.80
2016,08,10,23,39,17.80
2016,08,10,23,40,17.70
2016,08,10,23,41,17.70
2016,08,10,23,42,17.70
2016,08,10,23,43,17.70
2016,08,10,23,44,17.60
2016,08,10,23,45,17.50
2016,08,10,23,46,17.40
2016,08,10,23,47,17.30
2016,08,10,23,48,17.30
2016,08,10,23,49,17.30
2016,08,10,23,50,17.20
2016,08,10,23,51,17.10
2016,08,10,23,52,17.00
2016,08,10,23,53,16.90
2016,08,10,23,54,16.80
2016,08,10,23,55,16.70